Home   Weather   Faridabad   Past weeks

Flag for India Past Weather in Faridabad, Haryana, India — Yesterday and Last 2 Weeks

Now
45 °F

Fog.


Feels Like: 41 °F
Forecast: 47 / 67 °F
Wind: 6 mph from West

Location: New Delhi Palam Airport

Current Time: Jan 17, 2017 at 10:32:20 am

Latest Report: Jan 17, 2017 at 9:30 am


Visibility: 0 mi

Pressure: 30.09 "Hg

Humidity: 87%

Dew Point: 41 °F

Location of FaridabadLocation

Past Weather in Faridabad — Graph

°F

Faridabad Temperature Yesterday

Maximum temperature yesterday: 63 °F (at 12:00 pm)
Minimum temperature yesterday: 48 °F (at 11:00 pm)
Average temperature yesterday: 57 °F

High & Low Weather Summary for the Past Weeks

 TemperatureHumidityPressure
High77 °F (Jan 5, 2:00 pm)100% (Jan 3, 4:30 am)30.15 "Hg (Jan 3, 4:30 am)
Low39 °F (Jan 11, 8:00 am)20% (Jan 15, 4:30 pm)29.83 "Hg (Jan 6, 2:30 pm)
Average57 °F74%30.01 "Hg
* Reported Jan 2 9:30 am — Jan 17 9:30 am, Faridabad, Weather by CustomWeather, © 2017

Note: Actual official high and low records may vary slightly from our data, if they occured in-between our weather recording intervals... More about our weather records

Advertising

Faridabad Weather History for the Previous 24 Hours

Scroll right to see more
 ConditionsComfort  
Time TempWeatherWind HumidityBarometerVisibility
9:30 am
Tue, Jan 17
45 °FFog.6 mph87%30.09 "Hg0 mi
9:00 am43 °FFog.6 mph93%30.09 "Hg0 mi
8:30 am43 °FFog.8 mph93%30.09 "Hg0 mi
8:00 am41 °FFog.8 mph100%30.07 "Hg0 mi
7:30 am41 °FFog.7 mph100%30.07 "Hg0 mi
7:00 am41 °FFog.7 mph100%30.07 "Hg0 mi
6:30 am41 °FFog.8 mph100%30.04 "Hg0 mi
6:00 am41 °FFog.8 mph100%30.04 "Hg0 mi
5:30 am41 °FFog.8 mph100%30.04 "Hg0 mi
5:00 am41 °FFog.7 mph100%30.04 "Hg0 mi
4:30 am45 °FFog.7 mph100%30.04 "Hg1 mi
4:00 am45 °FFog.7 mph100%30.04 "Hg1 mi
3:00 am45 °FFog.6 mph87%30.04 "Hg1 mi
2:30 am46 °FFog.8 mph87%30.07 "Hg1 mi
2:00 am46 °FFog.8 mph87%30.07 "Hg1 mi
1:30 am46 °FFog.8 mph87%30.07 "Hg1 mi
1:00 am46 °FFog.8 mph87%30.07 "Hg1 mi
12:30 am46 °FFog.7 mph87%30.07 "Hg1 mi
12:00 am48 °FFog.8 mph87%30.07 "Hg1 mi
11:30 pm
Mon, Jan 16
48 °FFog.10 mph87%30.07 "Hg1 mi
11:00 pm48 °FFog.8 mph87%30.07 "Hg1 mi
10:30 pm50 °FFog.9 mph88%30.07 "Hg1 mi
10:00 pm50 °FFog.9 mph88%30.07 "Hg1 mi
9:30 pm50 °FFog.10 mph88%30.07 "Hg1 mi
9:00 pm52 °FFog.9 mph88%30.07 "Hg1 mi
8:30 pm52 °FFog.8 mph88%30.07 "Hg1 mi
8:00 pm52 °FFog.8 mph88%30.04 "Hg1 mi
7:30 pm54 °FFog.8 mph82%30.04 "Hg1 mi
7:00 pm54 °FFog.9 mph82%30.04 "Hg1 mi
6:30 pm55 °FFog.8 mph77%30.04 "Hg1 mi
5:30 pm57 °FHaze.9 mph77%30.01 "Hg1 mi
5:00 pm59 °FHaze.10 mph72%30.01 "Hg1 mi
4:30 pm61 °FHaze.10 mph68%30.01 "Hg1 mi
4:00 pm63 °FHaze.10 mph64%30.01 "Hg1 mi
3:30 pm63 °FHaze.10 mph64%30.01 "Hg1 mi
3:00 pm63 °FHaze.10 mph64%30.01 "Hg1 mi
2:30 pm63 °FPassing clouds.14 mph64%30.01 "Hg1 mi
2:00 pm63 °FPassing clouds.14 mph64%30.01 "Hg1 mi
1:30 pm63 °FPassing clouds.14 mph64%30.01 "Hg1 mi
1:00 pm63 °FPassing clouds.12 mph64%30.07 "Hg1 mi
12:30 pm63 °FPassing clouds.12 mph64%30.04 "Hg1 mi
12:00 pm63 °FScattered clouds.12 mph64%30.07 "Hg1 mi
11:30 am61 °FScattered clouds.12 mph68%30.07 "Hg1 mi
11:00 am61 °FScattered clouds.12 mph68%30.07 "Hg1 mi
10:30 am59 °FScattered clouds.12 mph68%30.07 "Hg1 mi
10:00 am57 °FScattered clouds.10 mph72%30.07 "Hg1 mi
Weather by CustomWeather, © 2017

See weather overviewHow to use our weather pages